Content
SEND FEEDBACK

Daily
Averages
Monthly
Summary
United States of America

CHICAGO, ILLINOIS


Home > North America > United States > Illinois
Elevation: 674 feet     Latitude: 41 59N     Longitude: 087 54W

WEATHER
 
SELECT A DAY
Number of Records: 197,880;   Date Range: 7/8/95 - 10/22/14
 
SHARE

PRINT THIS DATA

[ ← Previous Day ]
WEATHER ALMANAC - SEPTEMBER 8, 2013
[ Next Day → ]
[ °C ]   °F
Weather ElementAverageHighLow
Temperature72.4 °F73.9 °F (11:52 am)70 °F (11:52 pm)
Dewpoint65.8 °F69.1 °F (1:52 am)64 °F (3:52 pm)
Humidity79.8 %87 % (1:52 am)71 % (3:52 pm)
Barometer30.01 in30.05 in (7:48 am)29.98 in (1:52 am)
Wind Speed8.3 mph15 mph (2:52 am)
Wind Gust21.9 mph (2:29 am)
Weather ElementAverage
Visibility8.7 mi
Wind DirectionNE (50 °)

Weather ElementTotal
Precipitation---
Cooling Degree Days7 (Base 65)
Growing Degree Days22 (Base 50)
Averaged from 30 records on September 8, 2013
WEATHER CONDITIONS BREAKOUT
WIND DIRECTION BREAKOUT
WEATHER BY HOUR - SEPTEMBER 8, 2013
[ °C ]   °F
Local TimeTemperatureDewpointHumidityBarometerVisibilityWind DirectionWind SpeedGust SpeedPrecipitationEventsConditions
1:40 AM73.4 °F68.0 °F83 %29.99 in10.0 miNNE (20°)6.9 mphMostly Cloudy
1:52 AM73.0 °F69.1 °F87 %29.98 in9.0 miNNE (20°)12.7 mph19.6 mphOvercast
2:29 AM71.6 °F66.2 °F83 %29.99 in7.0 miNNE (30°)12.7 mph21.9 mphOvercast
2:52 AM72.0 °F66.9 °F84 %29.98 in9.0 miNNE (20°)15.0 mphOvercast
2:59 AM71.6 °F66.2 °F83 %30.00 in9.0 miNNE (30°)13.8 mph19.6 mphOvercast
3:25 AM71.6 °F66.2 °F83 %30.00 in9.0 miNNE (20°)11.5 mph18.4 mphOvercast
3:52 AM71.1 °F66.9 °F87 %29.99 in8.0 miNNE (20°)11.5 mphOvercast
4:52 AM72.0 °F66.9 °F84 %30.00 in7.0 miNE (40°)11.5 mphOvercast
5:52 AM72.0 °F66.9 °F84 %30.01 in8.0 miNE (50°)6.9 mphOvercast
6:52 AM72.0 °F66.9 °F84 %30.03 in9.0 miVariable6.9 mphOvercast
7:48 AM71.6 °F66.2 °F83 %30.05 in6.0 miVariable5.8 mphHaze
7:52 AM72.0 °F66.9 °F84 %30.04 in6.0 miEast (80°)6.9 mphHaze
8:52 AM72.0 °F66.9 °F84 %30.03 in7.0 miVariable6.9 mphOvercast
9:52 AM73.0 °F66.0 °F79 %30.03 in9.0 miENE (60°)10.4 mphOvercast
10:34 AM73.4 °F66.2 °F78 %30.05 in10.0 miEast (90°)11.5 mphOvercast
10:52 AM73.0 °F64.9 °F76 %30.04 in9.0 miEast (100°)11.5 mphOvercast
11:52 AM73.9 °F64.9 °F73 %30.05 in10.0 miENE (70°)9.2 mphOvercast
12:52 PM73.9 °F64.9 °F73 %30.04 in8.0 miEast (80°)9.2 mphOvercast
1:52 PM73.9 °F64.9 °F73 %30.03 in8.0 miEast (90°)6.9 mphOvercast
2:52 PM73.0 °F64.9 °F76 %30.02 in8.0 miENE (70°)10.4 mph17.3 mphOvercast
3:52 PM73.9 °F64.0 °F71 %30.02 in10.0 miEast (80°)9.2 mphOvercast
4:52 PM73.9 °F64.0 °F71 %30.00 in10.0 miENE (70°)10.4 mph18.4 mphMostly Cloudy
5:32 PM73.4 °F64.4 °F73 %30.01 in9.0 miEast (80°)8.1 mphOvercast
5:52 PM73.0 °F64.0 °F73 %29.99 in10.0 miEast (80°)8.1 mphOvercast
6:52 PM72.0 °F64.9 °F78 %29.99 in10.0 miNE (50°)5.8 mphMostly Cloudy
7:52 PM71.1 °F64.9 °F81 %29.99 in10.0 miEast (90°)3.5 mphClear
8:52 PM71.1 °F64.9 °F81 %29.99 in10.0 miEast (80°)3.5 mphClear
9:52 PM71.1 °F66.0 °F84 %29.98 in10.0 miEast (80°)3.5 mphClear
10:52 PM72.0 °F64.9 °F78 %29.99 in9.0 miCalmClear
11:52 PM70.0 °F64.9 °F84 %29.99 in8.0 miCalmClear
Hourly data recorded from KPWK, located miles away from Chicago, Illinois







STORIES FROM OUR PARTNERS